Stündliche Wetter Bolshie Leznevichi

Heute, 30 September, Mittwoch

Zeit Temperatur Niederschläge Wind Luftdruck Luftfeuchtigkeit
00:00 +12°C° 0 mm 4 m/S 735 mmHg 91%
01:00 +11°C° 0 mm 4 m/S 735 mmHg 91%
02:00 +11°C° 0 mm 3 m/S 735 mmHg 94%
03:00 +11°C° 0 mm 3 m/S 735 mmHg 92%
04:00 +11°C° 0 mm 4 m/S 734 mmHg 91%
05:00 +11°C° 0 mm 4 m/S 734 mmHg 90%
06:00 +11°C° 0 mm 4 m/S 734 mmHg 88%
07:00 +10°C° 0 mm 5 m/S 734 mmHg 86%
08:00 +10°C° 0 mm 5 m/S 734 mmHg 81%
09:00 +10°C° 0.1 mm 5 m/S 734 mmHg 82%
10:00 +12°C° 0.1 mm 5 m/S 734 mmHg 82%
11:00 +12°C° 0.1 mm 5 m/S 733 mmHg 83%
12:00 +13°C° 0 mm 6 m/S 733 mmHg 78%
13:00 +15°C° 0 mm 6 m/S 733 mmHg 73%
14:00 +16°C° 0 mm 6 m/S 734 mmHg 67%
15:00 +15°C° 0 mm 5 m/S 734 mmHg 66%
16:00 +14°C° 0 mm 5 m/S 734 mmHg 65%
17:00 +14°C° 0 mm 5 m/S 734 mmHg 64%
18:00 +13°C° 0 mm 4 m/S 734 mmHg 64%
19:00 +12°C° 0 mm 4 m/S 734 mmHg 64%
20:00 +11°C° 0 mm 4 m/S 734 mmHg 64%
21:00 +11°C° 0 mm 4 m/S 734 mmHg 65%
22:00 +10°C° 0 mm 4 m/S 733 mmHg 67%
23:00 +10°C° 0 mm 4 m/S 733 mmHg 68%

Morgen, 1 Oktober, Donnerstag

Zeit Temperatur Niederschläge Wind Luftdruck Luftfeuchtigkeit
00:00 +10°C° 0 mm 4 m/S 733 mmHg 67%
01:00 +10°C° 0 mm 4 m/S 733 mmHg 66%
02:00 +8°C° 0 mm 4 m/S 733 mmHg 66%
03:00 +8°C° 0 mm 5 m/S 732 mmHg 64%
04:00 +8°C° 0 mm 5 m/S 732 mmHg 63%
05:00 +8°C° 0 mm 5 m/S 732 mmHg 62%
06:00 +9°C° 0 mm 5 m/S 732 mmHg 61%
07:00 +10°C° 0 mm 5 m/S 732 mmHg 60%
08:00 +12°C° 0 mm 5 m/S 731 mmHg 59%
09:00 +13°C° 0 mm 6 m/S 732 mmHg 59%
10:00 +14°C° 0 mm 7 m/S 732 mmHg 58%
11:00 +16°C° 0 mm 8 m/S 732 mmHg 58%
12:00 +16°C° 0 mm 8 m/S 732 mmHg 59%
13:00 +16°C° 0 mm 8 m/S 732 mmHg 61%
14:00 +17°C° 0 mm 7 m/S 732 mmHg 63%
15:00 +16°C° 0.1 mm 6 m/S 732 mmHg 66%
16:00 +16°C° 0.1 mm 6 m/S 732 mmHg 70%
17:00 +15°C° 0.1 mm 5 m/S 733 mmHg 74%
18:00 +14°C° 0 mm 5 m/S 733 mmHg 77%
19:00 +13°C° 0 mm 4 m/S 733 mmHg 80%
20:00 +12°C° 0 mm 4 m/S 734 mmHg 83%
21:00 +12°C° 0 mm 4 m/S 734 mmHg 81%
22:00 +12°C° 0 mm 5 m/S 734 mmHg 79%
23:00 +10°C° 0 mm 5 m/S 734 mmHg 77%

übermorgen, 2 Oktober, Freitag

Zeit Temperatur Niederschläge Wind Luftdruck Luftfeuchtigkeit
00:00 +10°C° 0 mm 5 m/S 734 mmHg 78%
01:00 +9°C° 0 mm 5 m/S 734 mmHg 80%
02:00 +9°C° 0 mm 5 m/S 734 mmHg 82%
03:00 +8°C° 0 mm 5 m/S 734 mmHg 82%
04:00 +8°C° 0 mm 5 m/S 734 mmHg 82%
05:00 +8°C° 0 mm 4 m/S 734 mmHg 82%
06:00 +8°C° 0 mm 5 m/S 734 mmHg 80%
07:00 +9°C° 0 mm 5 m/S 734 mmHg 78%
08:00 +9°C° 0 mm 5 m/S 734 mmHg 76%
09:00 +10°C° 0 mm 6 m/S 734 mmHg 74%
10:00 +13°C° 0 mm 6 m/S 734 mmHg 73%
11:00 +14°C° 0 mm 6 m/S 735 mmHg 71%
12:00 +14°C° 0 mm 6 m/S 735 mmHg 69%
13:00 +15°C° 0 mm 6 m/S 735 mmHg 67%
14:00 +15°C° 0 mm 5 m/S 735 mmHg 65%
15:00 +15°C° 0 mm 5 m/S 735 mmHg 69%
16:00 +14°C° 0 mm 4 m/S 735 mmHg 72%
17:00 +13°C° 0 mm 4 m/S 735 mmHg 75%
18:00 +13°C° 0.1 mm 4 m/S 735 mmHg 79%
19:00 +12°C° 0.1 mm 4 m/S 735 mmHg 82%
20:00 +12°C° 0.1 mm 4 m/S 735 mmHg 86%
21:00 +11°C° 0 mm 4 m/S 735 mmHg 87%
22:00 +11°C° 0 mm 4 m/S 735 mmHg 87%
23:00 +11°C° 0 mm 4 m/S 735 mmHg 88%

3 Oktober, Samstag

Zeit Temperatur Niederschläge Wind Luftdruck Luftfeuchtigkeit
00:00 +10°C° 0 mm 4 m/S 735 mmHg 89%
01:00 +10°C° 0 mm 4 m/S 735 mmHg 89%
02:00 +10°C° 0 mm 4 m/S 735 mmHg 90%
03:00 +10°C° 0 mm 3 m/S 735 mmHg 91%
04:00 +9°C° 0 mm 3 m/S 735 mmHg 92%
05:00 +9°C° 0 mm 3 m/S 735 mmHg 93%
06:00 +10°C° 0 mm 3 m/S 735 mmHg 93%
07:00 +10°C° 0 mm 3 m/S 735 mmHg 92%
08:00 +11°C° 0 mm 4 m/S 735 mmHg 92%
09:00 +12°C° 0 mm 4 m/S 735 mmHg 87%
10:00 +13°C° 0 mm 4 m/S 735 mmHg 83%
11:00 +14°C° 0 mm 4 m/S 735 mmHg 78%
12:00 +15°C° 0 mm 5 m/S 735 mmHg 74%
13:00 +16°C° 0 mm 5 m/S 735 mmHg 70%
14:00 +17°C° 0 mm 5 m/S 735 mmHg 66%
15:00 +16°C° 0 mm 5 m/S 735 mmHg 69%
16:00 +17°C° 0 mm 4 m/S 735 mmHg 72%
17:00 +15°C° 0 mm 4 m/S 735 mmHg 76%
18:00 +14°C° 0 mm 4 m/S 735 mmHg 80%
19:00 +13°C° 0 mm 5 m/S 735 mmHg 83%
20:00 +12°C° 0 mm 5 m/S 735 mmHg 87%
21:00 +12°C° 0 mm 5 m/S 735 mmHg 87%
22:00 +12°C° 0 mm 5 m/S 735 mmHg 87%
23:00 +12°C° 0 mm 5 m/S 735 mmHg 87%

4 Oktober, Sonntag

Zeit Temperatur Niederschläge Wind Luftdruck Luftfeuchtigkeit
00:00 +12°C° 0 mm 5 m/S 735 mmHg 87%
01:00 +12°C° 0 mm 5 m/S 735 mmHg 86%
02:00 +12°C° 0 mm 5 m/S 735 mmHg 85%
03:00 +11°C° 0.5 mm 6 m/S 735 mmHg 87%
04:00 +11°C° 0.5 mm 6 m/S 734 mmHg 89%
05:00 +11°C° 0.5 mm 6 m/S 734 mmHg 92%
06:00 +11°C° 0.6 mm 6 m/S 734 mmHg 91%
07:00 +11°C° 0.6 mm 6 m/S 734 mmHg 91%
08:00 +12°C° 0.6 mm 7 m/S 734 mmHg 91%
09:00 +12°C° 0.6 mm 7 m/S 734 mmHg 91%
10:00 +12°C° 0.6 mm 7 m/S 734 mmHg 90%
11:00 +13°C° 0.6 mm 8 m/S 734 mmHg 90%
12:00 +13°C° 0.4 mm 8 m/S 734 mmHg 89%
13:00 +13°C° 0.4 mm 8 m/S 734 mmHg 87%
14:00 +15°C° 0.4 mm 8 m/S 733 mmHg 86%
15:00 +15°C° 0 mm 8 m/S 733 mmHg 85%
16:00 +15°C° 0 mm 8 m/S 733 mmHg 85%
17:00 +15°C° 0 mm 8 m/S 733 mmHg 85%
18:00 +15°C° 0.1 mm 7 m/S 733 mmHg 87%
19:00 +14°C° 0.1 mm 7 m/S 733 mmHg 88%
20:00 +14°C° 0.1 mm 6 m/S 733 mmHg 90%
21:00 +14°C° 0 mm 6 m/S 733 mmHg 91%
22:00 +14°C° 0 mm 5 m/S 733 mmHg 93%
23:00 +14°C° 0 mm 5 m/S 733 mmHg 94%

5 Oktober, Montag

Zeit Temperatur Niederschläge Wind Luftdruck Luftfeuchtigkeit
00:00 +13°C° 0 mm 5 m/S 733 mmHg 95%
01:00 +13°C° 0 mm 4 m/S 732 mmHg 96%
02:00 +13°C° 0 mm 4 m/S 732 mmHg 96%
03:00 +12°C° 0 mm 4 m/S 732 mmHg 96%
04:00 +12°C° 0 mm 4 m/S 732 mmHg 96%
05:00 +12°C° 0 mm 4 m/S 732 mmHg 96%
06:00 +12°C° 0 mm 4 m/S 732 mmHg 95%
07:00 +13°C° 0 mm 4 m/S 732 mmHg 94%
08:00 +13°C° 0 mm 4 m/S 731 mmHg 93%
09:00 +14°C° 0 mm 4 m/S 731 mmHg 89%
10:00 +16°C° 0 mm 5 m/S 731 mmHg 85%
11:00 +17°C° 0 mm 5 m/S 731 mmHg 81%
12:00 +17°C° 0.2 mm 6 m/S 731 mmHg 81%
13:00 +17°C° 0.2 mm 6 m/S 730 mmHg 81%
14:00 +17°C° 0.2 mm 6 m/S 730 mmHg 81%
15:00 +17°C° 0.1 mm 6 m/S 730 mmHg 82%
16:00 +17°C° 0.1 mm 5 m/S 729 mmHg 84%
17:00 +17°C° 0.1 mm 5 m/S 729 mmHg 85%
18:00 +16°C° 0.2 mm 5 m/S 729 mmHg 88%
19:00 +16°C° 0.2 mm 5 m/S 729 mmHg 90%
20:00 +15°C° 0.2 mm 5 m/S 729 mmHg 93%
21:00 +15°C° 0.1 mm 4 m/S 729 mmHg 93%
22:00 +15°C° 0.1 mm 4 m/S 729 mmHg 93%
23:00 +15°C° 0.1 mm 4 m/S 728 mmHg 93%
Mehr zeigen

We Need Your Consent

Meteoprog and our Service Providers may store and access personal data such as cookies, device identifiers or other similar technologies on your device and process such data to personalise content and ads, as well as provide social media features and to analyse the traffic.

  • Store and/or access information on your device

    Cookies, device identifiers or other information can be stored or accessed on your device for the purposes indicated above.

  • Personalised ads and content, ad and content measurement, audience insights, and products development

    Ads and content can be personalised based on a profile. More data can be added to better personalise ads and content. Ad and content performance can be measured. Insights about the audience who saw the ads and content can be derived. Such data can be used to develop or improve user’s experience, systems and software.

By clicking ‘I Agree’ you will allow the use of indicated cookies, device identifiers, web beacons or other similar technologies. Your settings can be changed in the browser on your device.

For certain purposes, legitimate interests may be relied on, rather than consent. You can read more about this in our Privacy and Cookie Policy.